Tracking 31027 objects as of 19-Jul-2025
HD Live streaming from Space Station
objects crossing your sky now

SAUDISAT 3

Track SAUDISAT 3 now!
10-day predictions
SAUDISAT 3 is classified as:


NORAD ID: 31118
Int'l Code: 2007-012B
Perigee: 654.9 km
Apogee: 674.7 km
Inclination: 98.1 °
Period: 97.9 minutes
Semi major axis: 7035 km
RCS: 0.633 m2 (medium)
Launch date: April 17, 2007
Source: Saudi Arabia (SAUD)
Launch site: TYURATAM MISSILE AND SPACE COMPLEX (TTMTR)
Your satellite tracking list
COSMOS 2251 DEB
Track 1 satellite(s)




NASA's NSSDC Master Catalog

Two Line Element Set (TLE):
1 31118U 07012B   25199.60351329  .00000216  00000-0  43305-4 0  9997
2 31118  98.1003 145.7830 0014114 204.0283 156.0267 14.71070143978756
Source of the keplerian elements: AFSPC